Location: Shepherdstown, WV
(39.4326°N, 77.8042°W)
Time: 09:50:45
(UTC-04:00)

Tiangong - Pass Details

Date: 27 June 2021
Orbit: 374 x 386 km, 41.5° (Epoch: 25 July)

Event Time Altitude Azimuth Distance (km) Brightness Sun altitude
Exits shadow 02:42:38 21° 70° (ENE) 925 3.4 -24.0°
Drops below altitude 10° 02:43:48 10° 74° (ENE) 1,385 4.3 -23.9°
Sets 02:45:54 0° 78° (ENE) 2,246 5.4 -23.7°
